Location: Praha
(50.0830°N, 14.4670°E)
Time: 00:57:47
(UTC+02:00)

ISS - Visible Passes

Search period start: 16 July 2018 00:00
Search period end: 26 July 2018 00:00
Orbit: 402 x 408 km, 51.6° (Epoch: 16 July)

Date Brightness Start Highest point End Pass type
(mag) Time Alt. Az. Time Alt. Az. Time Alt. Az.
16 Jul -2.9 00:59:18 36° ESE 00:59:18 36° ESE 01:01:35 10° ENE visible
16 Jul -3.5 02:31:56 13° W 02:34:51 68° N 02:38:08 10° ENE visible
16 Jul -3.7 04:08:10 10° WNW 04:11:29 82° NNE 04:14:48 10° ESE visible
17 Jul -1.6 00:08:36 16° E 00:08:36 16° E 00:09:24 10° E visible
17 Jul -3.8 01:41:12 29° W 01:42:44 79° N 01:46:02 10° ENE visible
17 Jul -3.5 03:16:05 10° WNW 03:19:23 69° N 03:22:41 10° E visible
18 Jul -4.0 00:50:13 64° SW 00:50:38 82° SSE 00:53:56 10° ENE visible
18 Jul -3.4 02:23:58 10° W 02:27:15 64° N 02:30:32 10° E visible
18 Jul -3.9 04:00:32 10° WNW 04:03:49 69° SSW 04:07:06 10° ESE visible
18 Jul -3.9 23:58:13 54° S 23:58:35 58° SSE 00:01:50 10° ENE visible
19 Jul -3.5 01:31:49 10° W 01:35:06 65° N 01:38:23 10° E visible
19 Jul -3.9 03:08:25 10° WNW 03:11:44 89° N 03:15:02 10° ESE visible
19 Jul -3.4 23:03:28 10° SW 23:06:33 39° SSE 23:09:40 10° E visible
20 Jul -3.7 00:39:39 10° W 00:42:57 74° N 00:46:14 10° ENE visible
20 Jul -3.6 02:16:18 10° WNW 02:19:36 73° N 02:22:54 10° E visible
20 Jul -3.4 03:52:52 10° W 03:56:00 40° SSW 03:59:07 10° SE visible
20 Jul -2.8 22:11:49 10° SSW 22:14:35 25° SE 22:17:21 10° E visible
20 Jul -3.9 23:47:31 10° WSW 23:50:48 90° SW 23:54:06 10° ENE visible
21 Jul -3.5 01:24:09 10° W 01:27:25 65° N 01:30:43 10° E visible
21 Jul -3.9 03:00:42 10° WNW 03:03:57 60° SSW 03:07:12 10° ESE visible
21 Jul -3.9 22:55:26 10° WSW 22:58:41 67° SSE 23:01:58 10° ENE visible
22 Jul -3.4 00:31:58 10° W 00:35:15 64° N 00:38:32 10° E visible
22 Jul -4.0 02:08:33 10° WNW 02:11:51 84° SSW 02:15:09 10° ESE visible
22 Jul -2.6 03:45:23 10° W 03:48:01 22° SW 03:50:41 10° SSE visible
22 Jul -3.5 22:03:27 10° SW 22:06:36 45° SSE 22:09:46 10° ENE visible
22 Jul -3.6 23:39:46 10° W 23:43:03 70° N 23:46:20 10° ENE visible
23 Jul -3.8 01:16:24 10° WNW 01:19:41 78° N 01:20:48 38° E visible
23 Jul -1.4 02:53:00 10° W 02:53:17 12° W 02:53:17 12° W visible
23 Jul -3.8 22:47:34 10° WSW 22:50:52 83° NNW 22:54:09 10° ENE visible
24 Jul -3.5 00:24:13 10° WNW 00:27:30 67° N 00:29:05 27° E visible
24 Jul -1.7 02:00:46 10° WNW 02:01:41 17° W 02:01:41 17° W visible
24 Jul -3.9 21:55:25 10° WSW 21:58:41 76° SSE 22:01:59 10° ENE visible
24 Jul -3.4 23:32:00 10° W 23:35:16 64° N 23:38:04 13° E visible
25 Jul -2.8 01:08:34 10° WNW 01:10:41 36° W 01:10:41 36° W visible
25 Jul -3.5 22:39:46 10° W 22:43:02 67° N 22:46:19 10° ENE visible
